EDT,Max TemperatureF,Mean TemperatureF,Min TemperatureF,Max Dew PointF,MeanDew PointF,Min DewpointF,Max Humidity, Mean Humidity, Min Humidity, Max Sea Level PressureIn, Mean Sea Level PressureIn, Min Sea Level PressureIn, Max VisibilityMiles, Mean VisibilityMiles, Min VisibilityMiles, Max Wind SpeedMPH, Mean Wind SpeedMPH, Max Gust SpeedMPH,PrecipitationIn, CloudCover, Events, WindDirDegrees
2013-10-1,75,70,64,63,58,55,83,65,53,30.00,29.95,29.91,10,10,10,12,8,,0.00,0,,297
2013-10-2,75,73,71,64,63,63,73,69,65,29.97,29.93,29.91,10,10,10,14,9,,0.00,0,,283
2013-10-3,75,70,66,61,53,48,83,56,41,30.12,30.09,30.06,10,10,10,9,6,,0.00,2,,308
2013-10-4,75,70,66,66,66,64,94,82,73,30.08,30.04,30.01,10,9,6,10,4,,0.00,0,,235
2013-10-5,69,66,62,64,63,61,94,89,83,30.10,30.09,30.06,10,10,10,9,8,,0.00,6,,18
2013-10-6,62,62,62,63,61,61,100,96,94,30.16,30.14,30.13,8,2,1,7,4,,0.00,8,,97
2013-10-7,73,71,69,70,69,68,100,92,88,30.01,29.94,29.90,10,10,7,21,18,24,0.00,4,,185
2013-10-8,64,62,59,48,47,45,63,57,49,30.26,30.23,30.20,10,10,10,12,9,16,0.00,2,,10
2013-10-9,60,58,57,50,49,48,77,70,63,30.41,30.38,30.35,10,10,10,14,14,24,0.00,5,,67
2013-10-10,62,60,59,59,58,55,88,86,82,30.24,30.17,30.14,10,10,10,16,14,26,0.00,6,,65
2013-10-11,66,63,60,61,60,57,94,88,83,30.09,30.08,30.06,10,10,6,12,9,23,0.00,7,,50
2013-10-12,64,62,60,63,59,57,94,87,77,30.27,30.25,30.22,10,10,10,14,12,,0.00,4,,90
2013-10-13,59,59,57,52,52,52,82,78,77,30.40,30.39,30.38,10,10,10,12,11,,0.00,5,,70
2013-10-14,59,,59,52,52,52,77,77,77,30.29,30.29,30.29,10,10,10,5,5,,0.00,3,,-1
2013-10-15,64,64,64,52,50,48,64,60,56,30.21,30.20,30.19,10,10,10,12,12,,0.00,0,,125
2013-10-16,,,,,,,,,,,,,,,,,,,,,,
2013-10-17,66,63,60,63,62,61,100,93,88,29.92,29.86,29.80,10,7,4,12,9,,0.00,7,,225
2013-10-18,66,64,57,54,51,48,72,64,52,29.90,29.85,29.81,10,10,10,17,13,23,0.00,0,,304
2013-10-19,62,55,48,54,49,45,93,71,52,30.01,29.92,29.81,10,10,10,9,3,,0.00,3,,201
2013-10-20,60,58,55,45,40,37,67,52,42,29.95,29.93,29.91,10,10,10,14,12,,0.00,0,,301
2013-10-21,62,50,41,48,44,39,93,67,45,30.16,30.15,30.12,10,10,10,9,5,,0.00,0,,261
2013-10-22,,,,,,,,,,,,,,,,,,,,,,
2013-10-23,,,,,,,,,,,,,,,,,,,,,,
2013-10-24,53,50,48,37,35,30,66,57,47,29.90,29.89,29.87,10,10,10,16,13,24,0.00,1,,281
2013-10-25,50,48,46,36,32,30,66,53,47,30.17,30.10,30.08,10,10,10,15,10,,0.00,3,,316
2013-10-26,53,48,44,41,37,36,81,57,51,30.20,30.09,29.99,10,10,10,22,15,30,0.00,3,,237
2013-10-27,53,51,51,37,37,37,58,57,54,29.95,29.94,29.94,10,10,10,16,15,23,0.00,0,,303
2013-10-28,57,44,32,41,37,30,93,69,55,30.21,30.20,30.19,10,10,10,12,4,,0.00,0,,240
2013-10-29,51,48,44,36,34,32,71,56,47,30.42,30.39,30.38,10,10,10,8,4,,0.00,0,,320
2013-10-30,59,52,46,52,48,43,87,74,63,30.32,30.26,30.21,10,10,10,10,5,,0.00,4,,227
2013-10-31,62,60,57,61,58,55,94,91,82,30.21,30.12,30.03,10,8,6,16,10,,0.00,8,Rain,195